| time (UTC) | temp F | wind direction | speed MPH | gust MPH | rain 1hr in | rain 24hr in | rain mn in | humidity % | barometer mb |
| 20260505075031 | 40 | 246 | 0.0 | 0.0 | 0.00 | 0.00 | 0.00 | 63 | 1020.3 |
| 20260505074528 | 40 | 246 | 0.0 | 0.0 | 0.00 | 0.00 | 0.00 | 63 | 1020.3 |
| 20260505074023 | 40 | 246 | 0.0 | 0.0 | 0.00 | 0.00 | 0.00 | 63 | 1020.3 |
| 20260505073520 | 40 | 246 | 0.0 | 0.0 | 0.00 | 0.00 | 0.00 | 63 | 1020.3 |
| 20260505072956 | 40 | 246 | 0.0 | 0.0 | 0.00 | 0.00 | 0.00 | 63 | 1020.3 |
| 20260505072703 | 40 | 246 | 0.0 | 0.0 | 0.00 | 0.00 | 0.00 | 63 | 1020.3 |
| 20260505071907 | 41 | 246 | 0.0 | 0.0 | 0.00 | 0.00 | 0.00 | 62 | 1020.3 |
| 20260505071345 | 41 | 246 | 0.0 | 0.0 | 0.00 | 0.00 | 0.00 | 62 | 1020.4 |
| 20260505070819 | 41 | 246 | 0.0 | 0.0 | 0.00 | 0.00 | 0.00 | 62 | 1020.4 |
| 20260505070308 | 41 | 246 | 0.0 | 0.0 | 0.00 | 0.00 | 0.00 | 62 | 1020.4 |
| 20260505070246 | 41 | 246 | 0.0 | 0.0 | 0.00 | 0.00 | 0.00 | 62 | 1020.5 |
| 20260505065219 | 41 | 246 | 0.0 | 0.0 | 0.00 | 0.00 | 0.00 | 62 | 1020.5 |
| 20260505064714 | 41 | 246 | 0.0 | 0.0 | 0.00 | 0.00 | 0.00 | 62 | 1020.5 |
| 20260505064212 | 41 | 246 | 0.0 | 0.0 | 0.00 | 0.00 | 0.00 | 61 | 1020.5 |
| 20260505063656 | 42 | 246 | 0.0 | 0.0 | 0.00 | 0.00 | 0.00 | 61 | 1020.4 |
| 20260505063157 | 42 | 246 | 0.0 | 0.0 | 0.00 | 0.00 | 0.00 | 61 | 1020.3 |
| 20260505062633 | 42 | 246 | 0.0 | 0.0 | 0.00 | 0.00 | 0.00 | 60 | 1020.4 |
| 20260505062107 | 42 | 246 | 0.0 | 0.0 | 0.00 | 0.00 | 0.00 | 60 | 1020.4 |
| 20260505061810 | 42 | 246 | 0.0 | 0.0 | 0.00 | 0.00 | 0.00 | 60 | 1020.4 |
| 20260505061039 | 42 | 216 | 0.0 | 0.0 | 0.00 | 0.00 | 0.00 | 59 | 1020.4 |
| 20260505060531 | 42 | 216 | 0.0 | 0.0 | 0.00 | 0.00 | 0.00 | 59 | 1020.5 |
| 20260505060034 | 42 | 215 | 0.0 | 0.0 | 0.00 | 0.00 | 0.00 | 59 | 1020.5 |
| 20260505055507 | 42 | 216 | 0.0 | 0.0 | 0.00 | 0.00 | 0.00 | 59 | 1020.5 |
| 20260505054939 | 42 | 216 | 0.0 | 0.0 | 0.00 | 0.00 | 0.00 | 58 | 1020.3 |
| 20260505054437 | 43 | 215 | 0.0 | 0.0 | 0.00 | 0.00 | 0.00 | 58 | 1020.3 |
| 20260505053910 | 43 | 216 | 0.0 | 0.0 | 0.00 | 0.00 | 0.00 | 58 | 1020.3 |
| 20260505053406 | 43 | 216 | 0.0 | 0.0 | 0.00 | 0.00 | 0.00 | 58 | 1020.4 |
| 20260505052847 | 43 | 216 | 0.0 | 0.0 | 0.00 | 0.00 | 0.00 | 58 | 1020.3 |
| 20260505052346 | 43 | 186 | 0.0 | 0.0 | 0.00 | 0.00 | 0.00 | 58 | 1020.2 |
| 20260505051818 | 43 | 261 | 0.0 | 0.0 | 0.00 | 0.00 | 0.00 | 58 | 1020.2 |
| 20260505051549 | 43 | 261 | 0.0 | 0.0 | 0.00 | 0.00 | 0.00 | 57 | 1020.1 |
| 20260505050750 | 43 | 261 | 0.0 | 0.0 | 0.00 | 0.00 | 0.00 | 57 | 1020.1 |
| 20260505050237 | 43 | 261 | 0.0 | 0.0 | 0.00 | 0.00 | 0.00 | 57 | 1020.1 |
| 20260505041612 | 44 | 221 | 0.0 | 0.0 | 0.00 | 0.00 | 0.00 | 53 | 1019.8 |
| 20260505041341 | 44 | 272 | 0.0 | 0.0 | 0.00 | 0.00 | 0.00 | 53 | 1020.0 |
| 20260505040547 | 44 | 272 | 0.0 | 0.0 | 0.00 | 0.00 | 0.00 | 53 | 1020.0 |
| 20260505040040 | 44 | 272 | 0.0 | 0.0 | 0.00 | 0.00 | 0.00 | 53 | 1020.0 |
| 20260505035538 | 44 | 267 | 0.0 | 0.0 | 0.00 | 0.00 | 0.00 | 52 | 1020.0 |
| 20260505035002 | 45 | 267 | 0.0 | 0.0 | 0.00 | 0.00 | 0.00 | 52 | 1019.8 |
| 20260505034728 | 45 | 266 | 0.0 | 0.0 | 0.00 | 0.00 | 0.00 | 52 | 1019.8 |
| 20260505033955 | 45 | 267 | 0.0 | 0.0 | 0.00 | 0.00 | 0.00 | 52 | 1019.7 |
| 20260505033430 | 45 | 267 | 0.0 | 0.0 | 0.00 | 0.00 | 0.00 | 51 | 1019.7 |
| 20260505032906 | 45 | 267 | 0.0 | 0.0 | 0.00 | 0.00 | 0.00 | 51 | 1019.8 |
| 20260505032353 | 45 | 252 | 0.0 | 0.0 | 0.00 | 0.00 | 0.00 | 50 | 1019.8 |
| 20260505031828 | 46 | 252 | 0.0 | 0.0 | 0.00 | 0.00 | 0.00 | 50 | 1019.7 |
| 20260505031259 | 46 | 252 | 0.0 | 0.0 | 0.00 | 0.00 | 0.00 | 49 | 1019.8 |
| 20260505030758 | 46 | 258 | 0.0 | 0.0 | 0.00 | 0.00 | 0.00 | 49 | 1019.8 |
| 20260505030246 | 46 | 259 | 0.0 | 0.0 | 0.00 | 0.00 | 0.00 | 49 | 1019.8 |
| 20260505025720 | 46 | 258 | 0.0 | 0.0 | 0.00 | 0.00 | 0.00 | 49 | 1019.7 |
| 20260505025451 | 46 | 247 | 0.0 | 0.0 | 0.00 | 0.00 | 0.00 | 48 | 1019.7 |
| 20260505024651 | 46 | 246 | 0.0 | 0.0 | 0.00 | 0.00 | 0.00 | 48 | 1019.6 |
| 20260505024149 | 46 | 246 | 0.0 | 0.0 | 0.00 | 0.00 | 0.00 | 48 | 1019.6 |
| 20260505023645 | 46 | 246 | 0.0 | 0.0 | 0.00 | 0.00 | 0.00 | 48 | 1019.6 |
| 20260505023144 | 47 | 246 | 0.0 | 0.0 | 0.00 | 0.00 | 0.00 | 47 | 1019.5 |
| 20260505022858 | 47 | 246 | 0.0 | 0.0 | 0.00 | 0.00 | 0.00 | 46 | 1019.4 |
| 20260505022130 | 47 | 243 | 0.0 | 0.0 | 0.00 | 0.00 | 0.00 | 46 | 1019.3 |
| 20260505021604 | 47 | 243 | 0.0 | 0.0 | 0.00 | 0.00 | 0.00 | 45 | 1019.3 |
| 20260505021036 | 47 | 243 | 0.0 | 0.0 | 0.00 | 0.00 | 0.00 | 45 | 1019.3 |
| 20260505020805 | 47 | 206 | 0.0 | 0.0 | 0.00 | 0.00 | 0.00 | 45 | 1019.2 |
| 20260505020018 | 48 | 246 | 0.0 | 0.0 | 0.00 | 0.00 | 0.00 | 44 | 1019.1 |
| 20260505015500 | 48 | 254 | 0.0 | 0.0 | 0.00 | 0.00 | 0.00 | 44 | 1019.1 |
| 20260505015005 | 48 | 254 | 0.0 | 0.0 | 0.00 | 0.00 | 0.00 | 44 | 1019.0 |
| 20260505014435 | 48 | 242 | 0.0 | 0.0 | 0.00 | 0.00 | 0.00 | 43 | 1019.0 |
| 20260505014203 | 48 | 236 | 0.0 | 1.0 | 0.00 | 0.00 | 0.00 | 43 | 1018.9 |
| 20260505013406 | 49 | 234 | 0.0 | 4.0 | 0.00 | 0.00 | 0.00 | 42 | 1019.0 |
| 20260505012840 | 49 | 239 | 0.0 | 4.0 | 0.00 | 0.00 | 0.00 | 42 | 1018.8 |
| 20260505012314 | 49 | 296 | 0.0 | 1.0 | 0.00 | 0.00 | 0.00 | 43 | 1018.7 |
| 20260505011808 | 49 | 121 | 0.0 | 3.0 | 0.00 | 0.00 | 0.00 | 44 | 1018.6 |
| 20260505011243 | 50 | 14 | 0.0 | 3.0 | 0.00 | 0.00 | 0.00 | 43 | 1018.5 |
| 20260505010742 | 50 | 319 | 0.0 | 4.0 | 0.00 | 0.00 | 0.00 | 43 | 1018.3 |
| 20260505010238 | 50 | 275 | 0.0 | 4.0 | 0.00 | 0.00 | 0.00 | 43 | 1018.3 |
| 20260505005734 | 51 | 236 | 0.0 | 4.0 | 0.00 | 0.00 | 0.00 | 43 | 1018.1 |
| 20260505005217 | 51 | 226 | 0.0 | 9.0 | 0.00 | 0.00 | 0.00 | 43 | 1018.0 |
| 20260505004717 | 51 | 302 | 0.0 | 9.0 | 0.00 | 0.00 | 0.00 | 42 | 1017.9 |
| 20260505004152 | 52 | 263 | 0.0 | 7.0 | 0.00 | 0.00 | 0.00 | 42 | 1017.9 |
| 20260505003628 | 52 | 305 | 0.0 | 7.0 | 0.00 | 0.00 | 0.00 | 41 | 1017.8 |
| 20260505003114 | 52 | 297 | 0.0 | 5.0 | 0.00 | 0.00 | 0.00 | 41 | 1017.7 |
| 20260505002618 | 52 | 282 | 0.0 | 5.0 | 0.00 | 0.00 | 0.00 | 41 | 1017.6 |
| 20260505002053 | 53 | 5 | 0.0 | 8.0 | 0.00 | 0.00 | 0.00 | 39 | 1017.4 |
| 20260505001541 | 53 | 200 | 0.0 | 1.0 | 0.00 | 0.00 | 0.00 | 39 | 1017.3 |
| 20260505001038 | 53 | 282 | 0.0 | 1.0 | 0.00 | 0.00 | 0.00 | 40 | 1017.3 |
| 20260505000536 | 53 | 279 | 0.0 | 1.0 | 0.00 | 0.00 | 0.00 | 39 | 1017.3 |
| 20260505000027 | 53 | 255 | 0.0 | 4.0 | 0.00 | 0.00 | 0.00 | 39 | 1017.2 |
| 20260504235756 | 53 | 256 | 0.0 | 11.0 | 0.00 | 0.00 | 0.00 | 39 | 1017.2 |
| 20260504235004 | 53 | 242 | 0.0 | 11.0 | 0.00 | 0.00 | 0.00 | 39 | 1017.2 |
| 20260504234508 | 54 | 237 | 0.0 | 7.0 | 0.00 | 0.00 | 0.00 | 40 | 1017.1 |
| 20260504234211 | 54 | 269 | 0.0 | 7.0 | 0.00 | 0.00 | 0.00 | 38 | 1017.0 |
| 20260504233437 | 54 | 271 | 0.0 | 13.0 | 0.00 | 0.00 | 0.00 | 38 | 1017.0 |
| 20260504232933 | 55 | 271 | 0.0 | 13.0 | 0.00 | 0.00 | 0.00 | 38 | 1017.0 |
| 20260504232430 | 55 | 258 | 0.0 | 12.0 | 0.00 | 0.00 | 0.00 | 38 | 1016.8 |
| 20260504231904 | 55 | 261 | 0.0 | 12.0 | 0.00 | 0.00 | 0.00 | 37 | 1016.8 |
| 20260504231353 | 56 | 304 | 0.0 | 3.0 | 0.00 | 0.00 | 0.00 | 38 | 1016.8 |
| 20260504231123 | 56 | 263 | 0.0 | 8.0 | 0.00 | 0.00 | 0.00 | 37 | 1016.8 |
| 20260504230347 | 56 | 333 | 0.0 | 8.0 | 0.00 | 0.00 | 0.00 | 37 | 1016.7 |
| 20260504225843 | 56 | 280 | 0.0 | 6.0 | 0.00 | 0.00 | 0.00 | 37 | 1016.6 |
| 20260504225340 | 57 | 284 | 0.0 | 3.0 | 0.00 | 0.00 | 0.00 | 36 | 1016.5 |
| 20260504224814 | 57 | 283 | 0.0 | 3.0 | 0.00 | 0.00 | 0.00 | 37 | 1016.4 |
| 20260504224300 | 58 | 302 | 0.0 | 3.0 | 0.00 | 0.00 | 0.00 | 36 | 1016.3 |
| 20260504224236 | 58 | 277 | 0.0 | 13.0 | 0.00 | 0.00 | 0.00 | 37 | 1016.3 |
| 20260504223437 | 58 | 249 | 1.0 | 13.0 | 0.00 | 0.00 | 0.00 | 35 | 1016.1 |
| 20260504222637 | 58 | 252 | 1.0 | 12.0 | 0.00 | 0.00 | 0.00 | 36 | 1016.0 |
| 20260504222134 | 59 | 268 | 1.0 | 12.0 | 0.00 | 0.00 | 0.00 | 36 | 1015.8 |
| 20260504222109 | 59 | 257 | 1.0 | 12.0 | 0.00 | 0.00 | 0.00 | 36 | 1015.8 |
| 20260504221038 | 60 | 296 | 1.0 | 12.0 | 0.00 | 0.00 | 0.00 | 34 | 1015.8 |
| 20260504220735 | 61 | 252 | 0.0 | 7.0 | 0.00 | 0.00 | 0.00 | 34 | 1015.7 |
| 20260504215955 | 61 | 319 | 0.0 | 9.0 | 0.00 | 0.00 | 0.00 | 35 | 1015.5 |
| 20260504215451 | 62 | 192 | 0.0 | 9.0 | 0.00 | 0.00 | 0.00 | 34 | 1015.5 |
| 20260504214950 | 61 | 252 | 0.0 | 7.0 | 0.00 | 0.00 | 0.00 | 36 | 1015.4 |
| 20260504214435 | 60 | 289 | 0.0 | 8.0 | 0.00 | 0.00 | 0.00 | 36 | 1015.3 |
| 20260504213938 | 60 | 288 | 0.0 | 8.0 | 0.00 | 0.00 | 0.00 | 35 | 1015.2 |
| 20260504213409 | 61 | 254 | 0.0 | 15.0 | 0.00 | 0.00 | 0.00 | 35 | 1015.0 |
| 20260504212906 | 61 | 303 | 0.0 | 15.0 | 0.00 | 0.00 | 0.00 | 35 | 1014.9 |
| 20260504212406 | 60 | 213 | 1.0 | 16.0 | 0.00 | 0.00 | 0.00 | 35 | 1014.9 |
| 20260504211905 | 61 | 269 | 1.0 | 16.0 | 0.00 | 0.00 | 0.00 | 34 | 1014.8 |
| 20260504211337 | 62 | 275 | 1.0 | 14.0 | 0.00 | 0.00 | 0.00 | 34 | 1014.9 |
| 20260504210830 | 62 | 284 | 0.0 | 14.0 | 0.00 | 0.00 | 0.00 | 33 | 1014.7 |
| 20260504210304 | 62 | 182 | 1.0 | 5.0 | 0.00 | 0.00 | 0.00 | 34 | 1014.8 |
| 20260504205757 | 62 | 292 | 1.0 | 11.0 | 0.00 | 0.00 | 0.00 | 33 | 1014.7 |
| 20260504205257 | 63 | 271 | 1.0 | 15.0 | 0.00 | 0.00 | 0.00 | 33 | 1014.7 |
| 20260504204754 | 64 | 254 | 1.0 | 15.0 | 0.00 | 0.00 | 0.00 | 32 | 1014.7 |
| 20260504204525 | 64 | 309 | 1.0 | 14.0 | 0.00 | 0.00 | 0.00 | 32 | 1014.7 |
| 20260504203752 | 64 | 225 | 1.0 | 13.0 | 0.00 | 0.00 | 0.00 | 33 | 1014.6 |
| 20260504203257 | 64 | 279 | 2.0 | 13.0 | 0.00 | 0.00 | 0.00 | 33 | 1014.5 |
| 20260504203001 | 63 | 256 | 2.0 | 14.0 | 0.00 | 0.00 | 0.00 | 34 | 1014.5 |
| 20260504202217 | 64 | 279 | 2.0 | 14.0 | 0.00 | 0.00 | 0.00 | 32 | 1014.4 |
| 20260504201918 | 65 | 244 | 1.0 | 13.0 | 0.00 | 0.00 | 0.00 | 33 | 1014.5 |
| 20260504201149 | 64 | 279 | 1.0 | 11.0 | 0.00 | 0.00 | 0.00 | 34 | 1014.4 |
| 20260504200638 | 64 | 287 | 1.0 | 12.0 | 0.00 | 0.00 | 0.00 | 33 | 1014.3 |
| 20260504200141 | 63 | 252 | 1.0 | 13.0 | 0.00 | 0.00 | 0.00 | 33 | 1014.3 |
| 20260504195627 | 63 | 250 | 1.0 | 13.0 | 0.00 | 0.00 | 0.00 | 32 | 1014.3 |
| 20260504195100 | 63 | 261 | 1.0 | 13.0 | 0.00 | 0.00 | 0.00 | 34 | 1014.3 |
| 20260504194604 | 63 | 234 | 2.0 | 13.0 | 0.00 | 0.00 | 0.00 | 35 | 1014.3 |
| 20260504194048 | 64 | 271 | 1.0 | 11.0 | 0.00 | 0.00 | 0.00 | 35 | 1014.3 |
| 20260504193545 | 63 | 259 | 1.0 | 14.0 | 0.00 | 0.00 | 0.00 | 34 | 1014.2 |
| 20260504193046 | 64 | 255 | 1.0 | 14.0 | 0.00 | 0.00 | 0.00 | 34 | 1014.0 |
| 20260504192759 | 64 | 309 | 1.0 | 6.0 | 0.00 | 0.00 | 0.00 | 35 | 1014.0 |
| 20260504192300 | 63 | 279 | 3.0 | 17.0 | 0.00 | 0.00 | 0.00 | 35 | 1013.9 |
| 20260504191530 | 63 | 242 | 3.0 | 17.0 | 0.00 | 0.00 | 0.00 | 33 | 1013.8 |
| 20260504191012 | 64 | 259 | 1.0 | 9.0 | 0.00 | 0.00 | 0.00 | 33 | 1013.8 |
| 20260504190743 | 64 | 107 | 1.0 | 12.0 | 0.00 | 0.00 | 0.00 | 34 | 1013.8 |
| 20260504190011 | 64 | 261 | 1.0 | 12.0 | 0.00 | 0.00 | 0.00 | 33 | 1013.8 |
| 20260504185511 | 65 | 288 | 0.0 | 7.0 | 0.00 | 0.00 | 0.00 | 33 | 1013.6 |
| 20260504185011 | 64 | 201 | 1.0 | 8.0 | 0.00 | 0.00 | 0.00 | 35 | 1013.6 |
| 20260504184515 | 63 | 218 | 2.0 | 10.0 | 0.00 | 0.00 | 0.00 | 35 | 1013.6 |
| 20260504183953 | 62 | 232 | 2.0 | 13.0 | 0.00 | 0.00 | 0.00 | 35 | 1013.6 |
| 20260504183444 | 62 | 262 | 1.0 | 13.0 | 0.00 | 0.00 | 0.00 | 33 | 1013.6 |
| 20260504183213 | 62 | 269 | 1.0 | 9.0 | 0.00 | 0.00 | 0.00 | 32 | 1013.5 |
| 20260504182440 | 64 | 257 | 1.0 | 10.0 | 0.00 | 0.00 | 0.00 | 32 | 1013.4 |
| 20260504181941 | 64 | 288 | 1.0 | 10.0 | 0.00 | 0.00 | 0.00 | 31 | 1013.4 |
| 20260504181438 | 65 | 263 | 1.0 | 7.0 | 0.00 | 0.00 | 0.00 | 30 | 1013.2 |
| 20260504180918 | 65 | 257 | 1.0 | 7.0 | 0.00 | 0.00 | 0.00 | 33 | 1013.1 |
| 20260504180419 | 65 | 257 | 1.0 | 8.0 | 0.00 | 0.00 | 0.00 | 32 | 1013.1 |
| 20260504175848 | 65 | 288 | 2.0 | 11.0 | 0.00 | 0.00 | 0.00 | 31 | 1013.0 |
| 20260504175348 | 65 | 240 | 1.0 | 11.0 | 0.00 | 0.00 | 0.00 | 32 | 1012.6 |
| 20260504174848 | 65 | 236 | 0.0 | 9.0 | 0.00 | 0.00 | 0.00 | 32 | 1012.8 |
| 20260504174348 | 66 | 327 | 1.0 | 8.0 | 0.00 | 0.00 | 0.00 | 32 | 1012.6 |
| 20260504173848 | 66 | 256 | 2.0 | 18.0 | 0.00 | 0.00 | 0.00 | 33 | 1012.6 |
| 20260504173320 | 66 | 232 | 1.0 | 18.0 | 0.00 | 0.00 | 0.00 | 33 | 1012.6 |
| 20260504172759 | 66 | 238 | 1.0 | 10.0 | 0.00 | 0.00 | 0.00 | 35 | 1012.5 |
| 20260504172235 | 66 | 300 | 0.0 | 10.0 | 0.00 | 0.00 | 0.00 | 36 | 1012.5 |
| 20260504171730 | 66 | 277 | 0.0 | 7.0 | 0.00 | 0.00 | 0.00 | 37 | 1012.5 |
| 20260504171230 | 66 | 284 | 0.0 | 7.0 | 0.00 | 0.00 | 0.00 | 37 | 1012.3 |
| 20260504170701 | 65 | 241 | 1.0 | 13.0 | 0.00 | 0.00 | 0.00 | 36 | 1012.4 |
| 20260504170137 | 65 | 16 | 1.0 | 13.0 | 0.00 | 0.00 | 0.00 | 35 | 1012.5 |
| 20260504160404 | 64 | 244 | 1.0 | 12.0 | 0.00 | 0.00 | 0.00 | 38 | 1012.3 |
| 20260504150617 | 62 | 221 | 0.0 | 8.0 | 0.00 | 0.00 | 0.00 | 41 | 1012.1 |
| 20260504150114 | 61 | 209 | 0.0 | 8.0 | 0.00 | 0.00 | 0.00 | 42 | 1012.0 |
| 20260504140921 | 60 | 284 | 1.0 | 10.0 | 0.00 | 0.00 | 0.00 | 41 | 1011.7 |
| 20260504140414 | 61 | 261 | 0.0 | 10.0 | 0.00 | 0.00 | 0.00 | 46 | 1011.6 |
| 20260504130749 | 59 | 263 | 1.0 | 9.0 | 0.00 | 0.00 | 0.00 | 50 | 1010.8 |
| 20260504130220 | 59 | 278 | 1.0 | 11.0 | 0.00 | 0.00 | 0.00 | 50 | 1010.8 |
| 20260504100518 | 57 | 227 | 3.0 | 15.0 | 0.00 | 0.00 | 0.00 | 45 | 1010.0 |
| 20260504081612 | 56 | 205 | 2.0 | 11.0 | 0.00 | 0.00 | 0.00 | 46 | 1011.7 |
| 20260504081113 | 56 | 201 | 1.0 | 11.0 | 0.00 | 0.00 | 0.00 | 46 | 1011.9 |
| 20260504080816 | 56 | 202 | 2.0 | 13.0 | 0.00 | 0.00 | 0.00 | 46 | 1012.1 |